Tracking 33188 objects as of 10-Feb-2026
HD Live streaming from Space Station
objects crossing your sky now

CZ-6A DEB

Track CZ-6A DEB now!
10-day predictions


NORAD ID: 56635
Int'l Code: 2022-151AFK
Perigee: 809.2 km
Apogee: 853.1 km
Inclination: 98.8 °
Period: 101.4 minutes
Semi major axis: 7202 km
RCS: Unknown
Launch date: November 11, 2022
Source: People's Republic of China (PRC)
Launch site: Taiyaun Space Center, China (TSC)

Note: This is SATELLITE DEBRIS
Your satellite tracking list
Your tracking list is empty




NASA's NSSDC Master Catalog

Two Line Element Set (TLE):
1 56635U 22151AFK 26034.24729605  .00000518  00000-0  26126-3 0  9990
2 56635  98.7563  46.2541 0030484  13.7033 346.4964 14.20387272143979
Source of the keplerian elements: AFSPC